Flag for U.S.A. Weather past 2 weeks in Billings, Montana, U.S.A.

42 °F

Light rain. Overcast.

Feels Like: 35 °F
Forecast: 42 / 51 °F
Wind: 14 mph from Northwest

Location: Billings Logan International Airport

Current Time: Oct 3, 2015 at 10:31:05 PM

Latest Report: Oct 3, 2015 at 8:53 PM

Visibility: 10 mi

Pressure: 30.11 "Hg (26.81 "Hg at 946m altitude)

Humidity: 82%

Dew point: 37 °F

Location of BillingsLocation

Historic Weather in Billings — Graph


Billings temperature yesterday

Maximum temperature yesterday: 61 °F (at 12:53 PM)
Minimum temperature yesterday: 51 °F (at 3:53 AM)
Average temperature yesterday: 56 °F

Past Weeks' High & Low Weather Summary

High94 °F (Sep 25, 2:53 PM)97% (Oct 3, 4:53 AM)30.14 "Hg (Oct 3, 4:53 AM)
Low42 °F (Oct 3, 8:53 PM)8% (Sep 25, 3:53 PM)29.63 "Hg (Sep 26, 4:53 PM)
Average64 °F41%29.93 "Hg
* Reported Sep 18 8:53 PM — Oct 3 8:53 PM, Billings, Weather by CustomWeather, © 2015

Note: Actual official high and low records may vary slightly from our data, if they occured in-between our weather recording intervals... More about our weather records


Billings weather history for previous 24 hours

Time TempWeatherWind HumidityBarometerVisibility
8:53 PM
Sat, Oct 3
42 °FLight rain. Overcast.14 mph82%30.11 "Hg10 mi
7:53 PM43 °FLight rain. Mostly cloudy.14 mph82%30.09 "Hg10 mi
6:53 PM43 °FLight rain. Overcast.16 mph82%30.06 "Hg10 mi
5:53 PM45 °FLight rain. Mostly cloudy.13 mph80%30.03 "Hg10 mi
4:53 PM45 °FLight rain. Overcast.13 mph82%30.01 "Hg10 mi
3:53 PM45 °FLight rain. Overcast.15 mph82%29.98 "Hg10 mi
2:53 PM46 °FLight rain. Overcast.15 mph86%29.96 "Hg10 mi
1:53 PM46 °FLight rain. Mostly cloudy.13 mph89%29.96 "Hg10 mi
12:53 PM46 °FLight rain. Mostly cloudy.14 mph89%29.93 "Hg10 mi
11:59 AM47 °FLight rain. Cloudy.14 mph93%29.92 "Hg9 mi
10:53 AM48 °FLight rain. Fog.18 mph89%29.89 "Hg5 mi
9:53 AM51 °FRain. Fog.18 mph92%29.85 "Hg3 mi
8:53 AM51 °FLight rain. Mostly cloudy.13 mph92%29.82 "Hg10 mi
7:53 AM51 °FLight rain. Mostly cloudy.13 mph92%29.80 "Hg10 mi
6:53 AM52 °FLight rain. Mostly cloudy.8 mph93%29.79 "Hg10 mi
5:53 AM52 °FRain. Overcast.9 mph93%29.79 "Hg8 mi
4:53 AM52 °FLight rain. Mostly cloudy.9 mph97%29.78 "Hg8 mi
3:53 AM53 °FRain. Fog.9 mph93%29.79 "Hg4 mi
1:53 AM53 °FRain. Fog.3 mph96%29.79 "Hg5 mi
Weather by CustomWeather, © 2015

See weather overviewHow to use our weather pages